Regional Weather Roundup
Issued by NWS Cleveland, OH

Home | Current Version | Previous Version | Graphics & Text | Print | Product List | Glossary On
Versions: 1 2 3 4 5 6 7 8 9 10 11 12 13 14 15 16 17 18 19 20 21 22 23 24 25 26 27 28 29 30 31 32 33 34 35 36 37 38 39 40 41 42 43 44 45 46 47 48 49 50
000
ASUS41 KCLE 040012
RWRCLE
OHIO REGIONAL WEATHER ROUNDUP
NATIONAL WEATHER SERVICE WILMINGTON, OH
800 PM EDT TUE MAY 03 2016

NOTE: "FAIR" INDICATES FEW OR NO CLOUDS BELOW 12,000 FEET WITH NO
SIGNIFICANT WEATHER AND/OR OBSTRUCTIONS TO VISIBILITY.

OHZ001>008-015>018-024>027-034-035-043-044-040100-
   NORTHWEST OHIO

CITY           SKY/WX    TMP DP  RH WIND       PRES   REMARKS
DEFIANCE       FAIR      60  40  47 SW7       29.82F
FINDLAY        FAIR      59  39  47 W8        29.81F
TOLEDO EXPRESS FAIR      60  38  43 SW9       29.80F
TOLEDO EXEC    MOCLDY    59  43  55 S5        29.81F
LIMA           FAIR      55  46  71 SW8       29.83F
$$

OHZ009>014-019>023-028>033-038-089-040100-
   NORTHEAST OHIO

CITY           SKY/WX    TMP DP  RH WIND       PRES   REMARKS
CLE-HOPKINS    FAIR      57  37  47 CALM      29.85F
CLE-LAKEFRONT  FAIR      52  42  69 CALM      29.82F
CUY CO. ARPT   PTCLDY    59  37  44 NE5       29.83F
LORAIN-ELYRIA  MOCLDY    57  36  45 CALM      29.83F
ASHTABULA      FAIR      53  40  61 CALM      29.84S
AKRON-CANTON   MOCLDY    55  37  50 NW8       29.82S
WOOSTER        CLOUDY    54  42  64 N5        29.83S
MANSFIELD      CLOUDY    54  45  71 CALM      29.83F
YOUNGSTOWN     MOCLDY    55  37  50 N9        29.81S
$$

OHZ042-051>053-060>062-070>072-077>081-040100-
  SOUTHWEST OHIO

CITY           SKY/WX    TMP DP  RH WIND       PRES   REMARKS
CINC-COVINGTON CLOUDY    55  51  86 SW3       29.87F
CINC-LUNKEN    CLOUDY    58  47  66 W6        29.87F
HAMILTON       CLOUDY    58  48  69 W5        29.87F
DAYTON         CLOUDY    56  45  66 W6        29.86F
WRIGHT-PAT AFB CLOUDY    58  47  67 W5        29.85S
DAYTON GENERAL CLOUDY    57  44  62 W6        29.85S
WILMINGTON     CLOUDY    56  46  69 NW5       29.85F
$$

OHZ036-037-039>041-045>050-054>059-063>069-073>076-082>088-040100-
  CENTRAL AND SOUTHEAST OHIO

CITY           SKY/WX    TMP DP  RH WIND       PRES   REMARKS
COLUMBUS       CLOUDY    56  44  64 W6        29.83F
OSU AIRPORT    CLOUDY    56  46  69 W5        29.84S
BOLTON FIELD   CLOUDY    56  47  71 CALM      29.85S
RICKENBACK AFB LGT RAIN  56  48  74 W5        29.84S
NEWARK         CLOUDY    58  46  64 W5        29.83S
MARION         CLOUDY    57  44  62 SW5       29.84S
LANCASTER      LGT RAIN  56  47  71 W3        29.85S
ZANESVILLE     CLOUDY    59  47  64 NW5       29.83S
NEW PHILLY     CLOUDY    58  41  53 NW9       29.82F
$$




USA.gov is the U.S. government's official web portal to all federal, state and local government web resources and services.